Location: ????
(32.1228°N, 34.8377°E)
Time: 00:23:04
(UTC+00:00)

Cosmos 1727 Rocket - Pass Details

Date: 21 September 2020
Orbit: 960 x 997 km, 82.9° (Epoch: 21 October)

Event Time Altitude Azimuth Distance (km) Brightness Sun altitude
Exits shadow 01:19:16 13° 173° (S) 2,552 6.0 -27.6°
Maximum altitude 01:24:59 67° 93° (E) 1,077 4.3 -26.5°
Drops below altitude 10° 01:31:15 10° 12° (NNE) 2,760 6.7 -25.2°
Sets 01:33:48 0° 10° (N) 3,708 7.4 -24.7°
